STARLINK-31129 (58624 NORAD) Tracking and Keplerian Element Data

This shows tracking and keplerian element data for the satellite.

Feedback or suggestion? Click here.




ElementValue
Catalog58624
NameSTARLINK-31129
Epoch Orbit451
Epoch Day13.25002315
Epoch Year2024
RAAN183.7421
Inclination43.0012
Eccentricity0.0001734
Argument of Perigee261.3568
Mean Anonmoly3.7134
Mean Motion15.52638484
Decay Rate-0.01738059
L11 58624U 23203G 24013.25002315 -.01738059 00000+0 -30859-1 0 9993
L22 58624 43.0012 183.7421 0001734 261.3568 3.7134 15.52638484 4513



Live tracking and technical data element details for STARLINK-31129 (NORAD 58624). STARLINK-31129 can be tracked NOW for your location showing map with azimuth and elevation plus other details from your city location.







IsCatalogInMostPopularTable: catalog: 58624, numindb: 22
Update: records affected: 1



GetName: 58624 STARLINK-31129

Hit Count: updated at: Wed, 17 Apr 2024 02:32:43 GMT